[[{"header":{"parameterUnit":"m.s-1","parameterCategory":1,"la1":30.2991,"la2":30.254,"lo1":-89.0895,"lo2":-89.0444,"dy":0.0017,"dx":0.0017,"nx":28,"ny":28,"refTime":"2024-06-04T09:00:00:Z","depth":0,"parameterNumber":2,"parameterNumberName":"U-component_of_WINDS"},"data":[0,0,0,0,0,0,0,0,0,0,0,0,0,0,0,0,0,0,0,0,0,0,0,0,0,0,0,0,0,0,0,0,0,0,0,0,0,0,0,0,0,0,0,0,0,0,0,0,0,0,0,0,0,0,0,0,0,0,-0.3971,-0.3972,0,-0.4032,-0.4033,-0.4034,-0.4064,-0.4064,-0.4064,-0.4064,-0.4128,-0.413,-0.4132,0,0,0,0,0,0,0,0,0,0,0,0,0,-0.3884,-0.3886,-0.3971,-0.3972,-0.3973,-0.4032,-0.4033,-0.4034,-0.4064,-0.4064,-0.4064,-0.4064,-0.4128,-0.413,-0.4132,0,0,0,0,0,0,0,0,0,0,0,0,0,-0.3931,-0.3886,-0.3971,-0.3995,-0.3998,-0.4032,-0.4033,-0.4034,-0.4064,-0.4064,-0.4064,-0.4064,-0.4127,-0.413,-0.4132,-0.4147,0,0,-0.414,-0.4141,0,0,0,0,0,0,0,0,-0.3929,-0.3934,-0.3991,-0.3993,-0.3997,-0.4041,-0.4026,-0.4072,-0.4064,-0.4039,-0.4064,-0.4064,-0.4099,-0.4104,-0.4115,-0.415,-0.4153,-0.414,-0.4142,-0.4143,-0.4143,0,0,0,0,0,0,0,-0.3925,-0.3932,-0.3995,-0.3992,-0.3995,-0.4004,-0.4011,-0.4035,-0.4068,-0.4041,-0.4044,-0.405,-0.4101,-0.4113,-0.4117,-0.4154,-0.414,-0.4142,-0.4144,-0.4145,-0.4207,-0.4207,0,0,0,0,0,0,-0.3918,-0.3929,-0.3993,-0.3997,-0.3962,-0.4005,-0.4013,-0.4026,-0.4068,-0.4074,-0.405,-0.4052,-0.4109,-0.4114,-0.412,-0.4142,-0.4143,-0.4145,-0.4146,-0.4207,-0.4207,-0.4207,0,0,0,0,0,0,-0.3916,-0.3923,-0.3991,-0.3964,-0.3973,-0.4007,-0.4022,-0.4028,-0.404,-0.4075,-0.4081,-0.4056,-0.4109,-0.4116,-0.4141,-0.4144,-0.4146,-0.4148,-0.4207,-0.4207,-0.4207,-0.4185,0,0,0,0,0,0,-0.3913,-0.3922,-0.3928,-0.3964,-0.3974,-0.401,-0.4022,-0.4029,-0.4044,-0.4046,-0.4082,-0.4088,-0.4109,-0.4137,-0.4143,-0.4148,-0.415,-0.4207,-0.4207,-0.4207,-0.4186,-0.4185,-0.4184,0,0,0,0,0,-0.391,-0.3919,-0.3928,-0.3935,-0.3982,-0.401,-0.4016,-0.404,-0.4044,-0.405,-0.4073,-0.4087,-0.4143,-0.4139,-0.4146,-0.4152,-0.4206,-0.4207,-0.4207,-0.4186,-0.4185,-0.4184,0,0,0,0,0,0,-0.3883,-0.3924,-0.3934,-0.3955,-0.3979,-0.4015,-0.4024,-0.4037,-0.4061,-0.4062,-0.4091,-0.4099,-0.4121,-0.4139,-0.4134,-0.417,-0.4176,-0.4178,-0.4158,-0.4157,-0.4156,-0.4151,-0.4153,0,0,0,0,0,-0.3879,-0.3898,-0.3933,-0.3948,-0.396,-0.3989,-0.4003,-0.4019,-0.4045,-0.4055,-0.408,-0.4105,-0.4129,-0.4144,-0.4167,-0.4188,-0.4198,-0.4196,-0.4195,-0.4194,-0.4196,-0.421,-0.4211,-0.4208,-0.4208,-0.4208,0,0,-0.3871,-0.3896,-0.3907,-0.3943,-0.3964,-0.3984,-0.3998,-0.4018,-0.4034,-0.4059,-0.4084,-0.4103,-0.4133,-0.4157,-0.4168,-0.4172,-0.4198,-0.4195,-0.4193,-0.4196,-0.4211,-0.4211,-0.4211,-0.4208,-0.4208,-0.4208,0,0,-0.3869,-0.3889,-0.3904,-0.3924,-0.3955,-0.3975,-0.3979,-0.4014,-0.4028,-0.4053,-0.4073,-0.4093,-0.4132,-0.4153,-0.4169,-0.4176,-0.4191,-0.4183,-0.4178,-0.4192,-0.4192,-0.4193,-0.4197,-0.4198,-0.4185,-0.4184,-0.4184,0,-0.3856,-0.3886,-0.391,-0.393,-0.3946,-0.397,-0.3987,-0.4006,-0.4043,-0.4054,-0.4058,-0.4109,-0.4131,-0.4161,-0.4163,-0.4174,-0.4181,-0.4179,-0.419,-0.4191,-0.4191,-0.4196,-0.4197,-0.4183,-0.4184,-0.4184,-0.4184,0,-0.3869,-0.389,-0.3899,-0.3934,-0.3952,-0.397,-0.3998,-0.4013,-0.4029,-0.4049,-0.4076,-0.4103,-0.4133,-0.4142,-0.4156,-0.4174,-0.4176,-0.4184,-0.4191,-0.419,-0.4195,-0.4197,-0.4182,-0.4182,-0.4183,-0.4183,0,0,-0.385,-0.39,-0.3903,-0.392,-0.3956,-0.3974,-0.3994,-0.4023,-0.4036,-0.4061,-0.408,-0.4113,-0.4122,-0.414,-0.4158,-0.417,-0.4176,-0.4178,-0.4179,-0.4178,-0.42,-0.4194,-0.4195,-0.4186,-0.4186,-0.4186,-0.4198,0,-0.3853,-0.389,-0.3913,-0.3941,-0.3961,-0.3985,-0.4003,-0.4028,-0.4048,-0.4069,-0.4091,-0.4115,-0.4124,-0.4135,-0.4148,-0.4173,-0.4181,-0.4172,-0.4205,-0.4206,-0.4197,-0.4197,-0.4191,-0.42,-0.4199,-0.42,-0.42,0,-0.3862,-0.3886,-0.3916,-0.3952,-0.3961,-0.3977,-0.4007,-0.4026,-0.4056,-0.407,-0.4091,-0.4109,-0.4133,-0.4137,-0.4171,-0.4164,-0.4179,-0.4193,-0.4194,-0.4199,-0.4203,-0.4203,-0.4203,-0.4205,-0.4203,-0.4203,-0.4202,0,-0.3847,-0.3887,-0.3911,-0.3924,-0.3966,-0.3977,-0.3995,-0.4025,-0.4042,-0.4068,-0.408,-0.4108,-0.4125,-0.4147,-0.4173,-0.4174,-0.4206,-0.4212,-0.4219,-0.4218,-0.4225,-0.4224,-0.4228,-0.4233,-0.4233,-0.4233,-0.4233,0,-0.3848,-0.3866,-0.3905,-0.3919,-0.394,-0.3968,-0.3988,-0.4008,-0.4035,-0.4055,-0.4077,-0.4095,-0.4128,-0.4151,-0.4172,-0.4198,-0.4205,-0.4217,-0.4223,-0.4216,-0.4215,-0.4227,-0.4227,-0.4233,-0.4233,-0.4233,-0.4233,0,-0.3835,-0.3861,-0.3889,-0.3927,-0.3937,-0.3951,-0.3984,-0.4,-0.4021,-0.4046,-0.4054,-0.4087,-0.4116,-0.4144,-0.4182,-0.4196,-0.4222,-0.4229,-0.4212,-0.4215,-0.4222,-0.4221,-0.4235,-0.4238,-0.4239,-0.4239,-0.4239,0,-0.3835,-0.3849,-0.3888,-0.3903,-0.3921,-0.3944,-0.3962,-0.399,-0.4008,-0.4043,-0.4055,-0.4085,-0.4111,-0.4155,-0.4184,-0.4214,-0.4222,-0.4225,-0.4227,-0.422,-0.4224,-0.4223,-0.4225,-0.4224,-0.4224,-0.4224,-0.4224,0,-0.3832,-0.3845,-0.3869,-0.3898,-0.3918,-0.3942,-0.3968,-0.3979,-0.4012,-0.4031,-0.406,-0.408,-0.412,-0.415,-0.4183,-0.4203,-0.422,-0.4223,-0.4226,-0.422,-0.421,-0.4217,-0.4211,-0.4222,-0.4222,-0.4223,-0.4223,-0.4223,-0.3826,-0.384,-0.3871,-0.3898,-0.392,-0.3943,-0.396,-0.3984,-0.4009,-0.4043,-0.4058,-0.4088,-0.412,-0.4166,-0.4186,-0.4211,-0.4215,-0.422,-0.4221,-0.4222,-0.4221,-0.4205,-0.4217,-0.4217,-0.4217,-0.4217,-0.4217,0,-0.3826,-0.3847,-0.3871,-0.3906,-0.3927,-0.394,-0.3969,-0.3987,-0.4013,-0.404,-0.4065,-0.41,-0.4129,-0.4161,-0.4193,-0.4207,-0.4215,-0.4214,-0.4214,-0.4219,-0.4215,-0.4209,-0.4207,-0.4207,-0.4207,-0.4207,-0.4207,-0.4207,-0.3828,-0.3853,-0.387,-0.3908,-0.3929,-0.3958,-0.3974,-0.3996,-0.4019,-0.4056,-0.4081,-0.4101,-0.4131,-0.4165,-0.4194,-0.4203,-0.4214,-0.4211,-0.4222,-0.4218,-0.4219,-0.4219,-0.4214,-0.4213,-0.4213,-0.4224,-0.4224,-0.4224]},{"header":{"parameterUnit":"m.s-1","parameterCategory":1,"la1":30.2991,"la2":30.254,"lo1":-89.0895,"lo2":-89.0444,"dy":0.0017,"dx":0.0017,"nx":28,"ny":28,"refTime":"2024-06-04T09:00:00:Z","depth":0,"parameterNumber":3,"parameterNumberName":"V-component_of_WINDS"},"data":[0,0,0,0,0,0,0,0,0,0,0,0,0,0,0,0,0,0,0,0,0,0,0,0,0,0,0,0,0,0,0,0,0,0,0,0,0,0,0,0,0,0,0,0,0,0,0,0,0,0,0,0,0,0,0,0,0,0,4.4181,4.4181,0,4.4205,4.4205,4.4205,4.4113,4.411,4.4107,4.4105,4.4127,4.413,4.4133,0,0,0,0,0,0,0,0,0,0,0,0,0,4.4051,4.4054,4.4181,4.4181,4.4181,4.4205,4.4205,4.4205,4.4113,4.411,4.4107,4.4104,4.4126,4.413,4.4134,0,0,0,0,0,0,0,0,0,0,0,0,0,4.4094,4.4055,4.4181,4.4138,4.4135,4.4205,4.4205,4.4205,4.4114,4.411,4.4106,4.4102,4.4125,4.4129,4.4134,4.4245,0,0,4.4149,4.4151,0,0,0,0,0,0,0,0,4.4092,4.4099,4.4144,4.4141,4.4137,4.4152,4.4167,4.4219,4.4115,4.4122,4.4105,4.41,4.4138,4.4142,4.4155,4.4246,4.4247,4.4149,4.4152,4.4154,4.4155,0,0,0,0,0,0,0,4.4089,4.4098,4.419,4.4145,4.4141,4.4117,4.4118,4.4177,4.4153,4.4121,4.4114,4.4119,4.4136,4.4151,4.4155,4.4248,4.4149,4.4153,4.4156,4.4158,4.4428,4.4432,0,0,0,0,0,0,4.4092,4.4096,4.4189,4.4191,4.4104,4.4122,4.4124,4.4151,4.4152,4.4148,4.4122,4.4114,4.4145,4.415,4.4156,4.4283,4.4154,4.4158,4.4161,4.4423,4.4429,4.4433,0,0,0,0,0,0,4.409,4.4101,4.4188,4.4142,4.4151,4.4129,4.416,4.4154,4.4169,4.4153,4.4148,4.4142,4.4142,4.4149,4.4223,4.4283,4.416,4.4165,4.4418,4.4425,4.4431,4.4541,0,0,0,0,0,0,4.4087,4.4101,4.4144,4.4143,4.4154,4.4257,4.4164,4.4157,4.4177,4.4167,4.417,4.4167,4.4139,4.4217,4.4228,4.4287,4.4168,4.4413,4.4421,4.4429,4.4532,4.4551,4.4567,0,0,0,0,0,4.4082,4.4175,4.4147,4.4159,4.4207,4.4261,4.4267,4.4234,4.4183,4.4225,4.4214,4.4167,4.4275,4.4225,4.4237,4.4298,4.4409,4.4419,4.4428,4.4525,4.4547,4.4566,0,0,0,0,0,0,4.4183,4.4174,4.4143,4.4238,4.4251,4.4245,4.4298,4.4259,4.4286,4.4275,4.4233,4.4234,4.4315,4.4314,4.4259,4.4404,4.4333,4.4345,4.4402,4.4423,4.444,4.4438,4.4172,0,0,0,0,0,4.4217,4.4262,4.4251,4.4336,4.4344,4.432,4.4342,4.4315,4.4327,4.4331,4.4326,4.4338,4.4374,4.4399,4.4432,4.4532,4.453,4.458,4.4597,4.4612,4.4623,4.4673,4.4694,4.4465,4.4465,4.4465,0,0,4.4286,4.4287,4.4318,4.4356,4.4363,4.4409,4.4325,4.4378,4.4411,4.4339,4.4408,4.4405,4.4415,4.4502,4.454,4.4504,4.4685,4.4624,4.4636,4.4639,4.4685,4.4707,4.4726,4.4472,4.4471,4.447,0,0,4.4436,4.4442,4.4512,4.452,4.4531,4.4514,4.4531,4.4531,4.4526,4.4595,4.454,4.4579,4.4643,4.4652,4.4665,4.4815,4.4772,4.4827,4.4917,4.4966,4.4984,4.5,4.5052,4.5071,4.4838,4.4839,4.4839,0,4.4521,4.4589,4.4553,4.4609,4.4626,4.4563,4.4632,4.4642,4.4663,4.4675,4.4635,4.4712,4.4715,4.4802,4.4838,4.4852,4.4868,4.4826,4.4985,4.5,4.5014,4.5063,4.5083,4.4845,4.4845,4.4844,4.4843,0,4.4691,4.4739,4.4794,4.4816,4.4839,4.4902,4.4873,4.4901,4.4872,4.4859,4.4929,4.493,4.496,4.4979,4.4952,4.5062,4.5038,4.4992,4.4919,4.5043,4.5088,4.5107,4.4855,4.4852,4.485,4.4849,0,0,4.4906,4.4905,4.4926,4.4933,4.494,4.4976,4.5034,4.5064,4.5088,4.5105,4.5151,4.5206,4.5162,4.5177,4.515,4.5194,4.531,4.5141,4.5141,4.5171,4.5428,4.5462,4.5484,4.5282,4.5285,4.5288,4.5427,0,4.5051,4.5151,4.5119,4.522,4.5262,4.5202,4.5252,4.5261,4.525,4.5283,4.5271,4.5309,4.525,4.5258,4.5299,4.5287,4.5361,4.5277,4.5323,4.5325,4.532,4.5508,4.5544,4.5675,4.5444,4.5447,4.5449,0,4.5233,4.5256,4.5361,4.5358,4.5375,4.5421,4.5444,4.5478,4.5485,4.5474,4.549,4.5453,4.5508,4.5436,4.551,4.5454,4.5471,4.5468,4.5472,4.5474,4.5393,4.5512,4.5716,4.5735,4.5477,4.5475,4.5473,0,4.5376,4.5433,4.5503,4.5512,4.5511,4.5544,4.5545,4.5549,4.5568,4.5588,4.56,4.5627,4.5641,4.5662,4.5632,4.5583,4.5711,4.5637,4.5701,4.5702,4.5729,4.5728,4.5937,4.5744,4.5744,4.5743,4.5743,0,4.554,4.5606,4.5566,4.5609,4.568,4.5642,4.5714,4.5708,4.5711,4.575,4.5701,4.5738,4.5698,4.5731,4.5709,4.5772,4.578,4.5771,4.5764,4.5774,4.5775,4.5783,4.5773,4.5748,4.5747,4.5746,4.5745,0,4.5712,4.5688,4.5759,4.5752,4.5751,4.5804,4.5797,4.5835,4.582,4.587,4.588,4.5856,4.5892,4.5865,4.5902,4.5886,4.597,4.5951,4.5967,4.5961,4.6026,4.602,4.6247,4.6273,4.6065,4.6067,4.6069,0,4.5817,4.5866,4.5864,4.5886,4.589,4.5928,4.5946,4.591,4.5932,4.5943,4.598,4.6012,4.6036,4.6097,4.6082,4.6109,4.6089,4.6167,4.6093,4.6101,4.6088,4.6085,4.6088,4.6181,4.6184,4.6186,4.6187,0,4.6006,4.5991,4.6021,4.6046,4.6069,4.6087,4.6101,4.6122,4.6085,4.6112,4.6149,4.6167,4.6204,4.6236,4.6257,4.6257,4.6216,4.6211,4.6227,4.6237,4.6244,4.6239,4.6006,4.6206,4.6204,4.6202,4.6201,4.6201,4.6146,4.6186,4.6189,4.6223,4.6229,4.6243,4.6278,4.6266,4.6296,4.6323,4.63,4.6343,4.6347,4.6372,4.6377,4.6409,4.6377,4.6401,4.6407,4.6413,4.6421,4.624,4.6413,4.6413,4.6412,4.6412,4.6411,0,4.633,4.6329,4.636,4.6381,4.6407,4.6366,4.6378,4.6403,4.6441,4.6449,4.6473,4.6514,4.6544,4.6532,4.6558,4.6587,4.6568,4.6595,4.6591,4.6591,4.6449,4.6432,4.6609,4.6609,4.6609,4.6609,4.6609,4.6609,4.6429,4.6493,4.6478,4.6544,4.6542,4.6584,4.6595,4.6606,4.6612,4.666,4.6685,4.6676,4.6675,4.6701,4.6726,4.6721,4.6733,4.6766,4.6754,4.6621,4.6602,4.6583,4.6566,4.6769,4.6769,4.6893,4.6894,4.6895]}]]